Powrót do katalogu

MSX

AktywnyMilitariaSSO
NORAD 23851·PAYLOAD·🇺🇸 United States

Wystrzelony Apr 24, 1996 z Vandenberg Space Force Base

Loading…

Następne Przeloty (najbliższe 24 godziny)

TLE

ŚwieżeSource: Space-Track

Epoka: Sep 14, 2026, 05:52 UTC

1 23851U 96024A   26257.24474244  .00000208  00000-0  17592-3 0  9990
2 23851  99.0450 193.0703 0007548   2.5182 357.6018 13.98394154550796

Śledź MSX w czasie rzeczywistym z AllMySat

Download on the App Store